Flag for Austria Weather past 2 weeks in Hallein, Salzburg, Austria

Now
72 °F

Partly sunny.


Feels Like: 76 °F
Forecast: 55 / 79 °F
Wind: 7 mph from Southeast

Location: Salzburg-Flughafen

Current Time: Jun 30, 2015 at 10:32:54 AM

Latest Report: Jun 30, 2015 at 9:50 AM


Visibility: N/A

Pressure: 30.18 "Hg

Humidity: 61%

Dew point: 57 °F

Location of HalleinLocation

Historic Weather in Hallein — Graph

°F

Hallein temperature yesterday

Maximum temperature yesterday: 77 °F (at 3:50 PM)
Minimum temperature yesterday: 57 °F (at 1:50 AM)
Average temperature yesterday: 67 °F

Past Weeks' High & Low Weather Summary

 TemperatureHumidityPressure
High77 °F (Jun 29, 3:50 PM)100% (Jun 15, 10:20 PM)30.24 "Hg (Jun 15, 10:20 PM)
Low48 °F (Jun 20, 10:20 AM)41% (Jun 26, 3:20 PM)29.71 "Hg (Jun 23, 12:50 AM)
Average60 °F78%30.10 "Hg
* Reported Jun 15 9:20 AM — Jun 30 9:20 AM, Hallein, Weather by CustomWeather, © 2015

Note: Actual official high and low records may vary slightly from our data, if they occured in-between our weather recording intervals... More about our weather records

Advertising

Hallein weather history for previous 24 hours

 ConditionsComfort  
Time TempWeatherWind HumidityBarometerVisibility
9:20 AM
Tue, Jun 30
70 °FPartly sunny.9 mph64%30.18 "HgN/A
8:50 AM68 °FPartly sunny.10 mph69%30.18 "HgN/A
8:20 AM66 °FSunny.8 mph73%30.18 "Hg10 mi
7:50 AM63 °FSunny.9 mph77%30.18 "Hg10 mi
7:20 AM63 °FSunny.9 mph77%30.18 "Hg10 mi
6:50 AM63 °FPassing clouds.9 mph77%30.18 "HgN/A
6:20 AM61 °FSunny.9 mph83%30.18 "Hg10 mi
5:50 AM59 °FClear.9 mph88%30.18 "Hg10 mi
4:50 AM61 °FCool.9 mph83%30.18 "HgN/A
4:20 AM61 °FClear.10 mph83%30.18 "Hg10 mi
3:50 AM61 °FCool.10 mph83%30.18 "HgN/A
3:20 AM61 °FCool.9 mph83%30.18 "HgN/A
2:50 AM61 °FCool.8 mph83%30.18 "HgN/A
2:20 AM61 °FCool.7 mph83%30.21 "HgN/A
1:50 AM61 °FCool.7 mph83%30.21 "HgN/A
1:20 AM61 °FCool.5 mph83%30.21 "HgN/A
12:50 AM61 °FCool.6 mph88%30.21 "HgN/A
12:20 AM64 °FClear.6 mph78%30.21 "Hg10 mi
11:20 PM
Mon, Jun 29
63 °FPassing clouds.6 mph88%30.21 "HgN/A
10:50 PM66 °FPassing clouds.3 mph73%30.21 "HgN/A
10:20 PM68 °FPassing clouds.1 mph73%30.18 "HgN/A
9:50 PM68 °FPassing clouds.2 mph78%30.18 "HgN/A
9:20 PM70 °FPassing clouds.2 mph73%30.18 "HgN/A
8:50 PM72 °FPassing clouds.3 mph69%30.18 "HgN/A
8:20 PM73 °FPassing clouds.5 mph57%30.15 "HgN/A
7:50 PM73 °FPassing clouds.7 mph53%30.15 "HgN/A
7:20 PM75 °FPassing clouds.8 mph54%30.15 "HgN/A
6:50 PM75 °FPassing clouds.8 mph50%30.15 "HgN/A
6:20 PM75 °FScattered clouds.8 mph54%30.15 "HgN/A
5:50 PM77 °FScattered clouds.7 mph47%30.15 "HgN/A
5:20 PM77 °FScattered clouds.6 mph47%30.15 "HgN/A
4:50 PM77 °FScattered clouds.7 mph47%30.15 "HgN/A
4:20 PM77 °FBroken clouds.5 mph47%30.15 "HgN/A
3:50 PM77 °FBroken clouds.7 mph47%30.15 "HgN/A
3:20 PM75 °FBroken clouds.5 mph50%30.15 "HgN/A
2:50 PM75 °FBroken clouds.6 mph50%30.15 "HgN/A
2:20 PM75 °FBroken clouds.6 mph47%30.15 "HgN/A
1:50 PM75 °FBroken clouds.7 mph44%30.18 "HgN/A
1:20 PM73 °FBroken clouds.5 mph47%30.18 "HgN/A
12:50 PM75 °FBroken clouds.3 mph50%30.18 "HgN/A
12:20 PM73 °FBroken clouds.2 mph50%30.18 "HgN/A
11:50 AM72 °FPartly sunny.3 mph53%30.18 "HgN/A
11:20 AM70 °FPartly sunny.3 mph60%30.18 "HgN/A
10:50 AM68 °FPartly sunny.3 mph69%30.21 "HgN/A
10:20 AM66 °FPartly sunny.6 mph73%30.21 "HgN/A
Weather by CustomWeather, © 2015

See weather overviewHow to use our weather pages